Year,Month,Day,Hour,Minute,Value (Times are PST for temperature in C)
2014,02,08,00,00,-4.40
2014,02,08,00,01,-4.40
2014,02,08,00,02,-4.50
2014,02,08,00,03,-4.50
2014,02,08,00,04,-4.50
2014,02,08,00,05,-4.50
2014,02,08,00,06,-4.60
2014,02,08,00,07,-4.50
2014,02,08,00,08,-4.50
2014,02,08,00,09,-4.50
2014,02,08,00,10,-4.50
2014,02,08,00,11,-4.50
2014,02,08,00,12,-4.50
2014,02,08,00,13,-4.50
2014,02,08,00,14,-4.50
2014,02,08,00,15,-4.40
2014,02,08,00,16,-4.40
2014,02,08,00,17,-4.40
2014,02,08,00,18,-4.40
2014,02,08,00,20,-4.40
2014,02,08,00,22,-4.40
2014,02,08,00,23,-4.40
2014,02,08,00,24,-4.40
2014,02,08,00,25,-4.40
2014,02,08,00,26,-4.40
2014,02,08,00,27,-4.40
2014,02,08,00,28,-4.40
2014,02,08,00,29,-4.40
2014,02,08,00,30,-4.40
2014,02,08,00,31,-4.40
2014,02,08,00,32,-4.40
2014,02,08,00,33,-4.40
2014,02,08,00,34,-4.40
2014,02,08,00,35,-4.40
2014,02,08,00,36,-4.40
2014,02,08,00,38,-4.40
2014,02,08,00,39,-4.40
2014,02,08,00,40,-4.40
2014,02,08,00,41,-4.50
2014,02,08,00,43,-4.50
2014,02,08,00,44,-4.50
2014,02,08,00,45,-4.60
2014,02,08,00,46,-4.60
2014,02,08,00,47,-4.60
2014,02,08,00,48,-4.60
2014,02,08,00,49,-4.70
2014,02,08,00,50,-4.70
2014,02,08,00,51,-4.80
2014,02,08,00,52,-4.80
2014,02,08,00,54,-4.80
2014,02,08,00,55,-4.90
2014,02,08,00,56,-4.90
2014,02,08,00,57,-4.90
2014,02,08,00,58,-4.90
2014,02,08,01,00,-5.00
2014,02,08,01,01,-5.00
2014,02,08,01,02,-5.10
2014,02,08,01,03,-5.10
2014,02,08,01,04,-5.10
2014,02,08,01,05,-5.10
2014,02,08,01,06,-5.10
2014,02,08,01,07,-5.20
2014,02,08,01,08,-5.20
2014,02,08,01,09,-5.20
2014,02,08,01,10,-5.20
2014,02,08,01,11,-5.20
2014,02,08,01,12,-5.20
2014,02,08,01,13,-5.30
2014,02,08,01,14,-5.30
2014,02,08,01,15,-5.30
2014,02,08,01,16,-5.30
2014,02,08,01,17,-5.30
2014,02,08,01,18,-5.30
2014,02,08,01,19,-5.30
2014,02,08,01,20,-5.40
2014,02,08,01,21,-5.40
2014,02,08,01,22,-5.40
2014,02,08,01,23,-5.40
2014,02,08,01,24,-5.40
2014,02,08,01,25,-5.50
2014,02,08,01,26,-5.50
2014,02,08,01,27,-5.60
2014,02,08,01,28,-5.60
2014,02,08,01,29,-5.60
2014,02,08,01,31,-5.60
2014,02,08,01,32,-5.70
2014,02,08,01,33,-5.70
2014,02,08,01,34,-5.70
2014,02,08,01,35,-5.70
2014,02,08,01,36,-5.70
2014,02,08,01,37,-5.70
2014,02,08,01,38,-5.70
2014,02,08,01,39,-5.70
2014,02,08,01,40,-5.70
2014,02,08,01,41,-5.70
2014,02,08,01,42,-5.80
2014,02,08,01,43,-5.80
2014,02,08,01,45,-5.80
2014,02,08,01,46,-5.80
2014,02,08,01,48,-5.80
2014,02,08,01,49,-5.80
2014,02,08,01,51,-5.90
2014,02,08,01,53,-5.90
2014,02,08,01,54,-5.90
2014,02,08,01,55,-5.90
2014,02,08,01,57,-5.90
2014,02,08,01,58,-5.90
2014,02,08,02,00,-6.00
2014,02,08,02,02,-6.00
2014,02,08,02,03,-6.00
2014,02,08,02,04,-6.00
2014,02,08,02,05,-6.00
2014,02,08,02,06,-6.00
2014,02,08,02,07,-6.00
2014,02,08,02,08,-6.10
2014,02,08,02,09,-6.10
2014,02,08,02,11,-6.10
2014,02,08,02,12,-6.10
2014,02,08,02,14,-6.10
2014,02,08,02,16,-6.10
2014,02,08,02,17,-6.20
2014,02,08,02,19,-6.20
2014,02,08,02,21,-6.20
2014,02,08,02,22,-6.20
2014,02,08,02,23,-6.20
2014,02,08,02,24,-6.30
2014,02,08,02,25,-6.30
2014,02,08,02,26,-6.30
2014,02,08,02,27,-6.30
2014,02,08,02,28,-6.30
2014,02,08,02,30,-6.30
2014,02,08,02,31,-6.30
2014,02,08,02,32,-6.30
2014,02,08,02,34,-6.40
2014,02,08,02,36,-6.40
2014,02,08,02,38,-6.30
2014,02,08,02,39,-6.30
2014,02,08,02,40,-6.30
2014,02,08,02,42,-6.30
2014,02,08,02,43,-6.30
2014,02,08,02,45,-6.40
2014,02,08,02,46,-6.40
2014,02,08,02,47,-6.40
2014,02,08,02,48,-6.40
2014,02,08,02,49,-6.40
2014,02,08,02,50,-6.40
2014,02,08,02,51,-6.50
2014,02,08,02,52,-6.50
2014,02,08,02,54,-6.60
2014,02,08,02,55,-6.60
2014,02,08,02,56,-6.60
2014,02,08,02,57,-6.60
2014,02,08,02,58,-6.70
2014,02,08,02,59,-6.70
2014,02,08,03,00,-6.70
2014,02,08,03,01,-6.70
2014,02,08,03,03,-6.80
2014,02,08,03,04,-6.80
2014,02,08,03,05,-6.80
2014,02,08,03,06,-6.80
2014,02,08,03,07,-6.80
2014,02,08,03,08,-6.80
2014,02,08,03,09,-6.90
2014,02,08,03,10,-6.90
2014,02,08,03,11,-6.90
2014,02,08,03,12,-6.90
2014,02,08,03,13,-6.90
2014,02,08,03,14,-7.00
2014,02,08,03,16,-7.00
2014,02,08,03,17,-7.00
2014,02,08,03,18,-7.10
2014,02,08,03,20,-7.10
2014,02,08,03,21,-7.10
2014,02,08,03,22,-7.10
2014,02,08,03,24,-7.10
2014,02,08,03,26,-7.10
2014,02,08,03,27,-7.10
2014,02,08,03,29,-7.10
2014,02,08,03,31,-7.10
2014,02,08,03,32,-7.20
2014,02,08,03,34,-7.20
2014,02,08,03,36,-7.20
2014,02,08,03,37,-7.20
2014,02,08,03,38,-7.20
2014,02,08,03,39,-7.20
2014,02,08,03,41,-7.20
2014,02,08,03,42,-7.20
2014,02,08,03,43,-7.20
2014,02,08,03,45,-7.20
2014,02,08,03,47,-7.20
2014,02,08,03,48,-7.20
2014,02,08,03,50,-7.30
2014,02,08,03,51,-7.30
2014,02,08,03,52,-7.30
2014,02,08,03,53,-7.30
2014,02,08,03,55,-7.40
2014,02,08,03,57,-7.40
2014,02,08,03,59,-7.50
2014,02,08,04,00,-7.50
2014,02,08,04,01,-7.50
2014,02,08,04,02,-7.50
2014,02,08,04,04,-7.60
2014,02,08,04,05,-7.60
2014,02,08,04,06,-7.60
2014,02,08,04,07,-7.60
2014,02,08,04,08,-7.60
2014,02,08,04,09,-7.60
2014,02,08,04,10,-7.60
2014,02,08,04,11,-7.60
2014,02,08,04,12,-7.60
2014,02,08,04,13,-7.60
2014,02,08,04,14,-7.60
2014,02,08,04,15,-7.60
2014,02,08,04,16,-7.60
2014,02,08,04,17,-7.60
2014,02,08,04,18,-7.60
2014,02,08,04,19,-7.60
2014,02,08,04,20,-7.60
2014,02,08,04,22,-7.60
2014,02,08,04,23,-7.60
2014,02,08,04,24,-7.60
2014,02,08,04,25,-7.60
2014,02,08,04,27,-7.70
2014,02,08,04,28,-7.70
2014,02,08,04,30,-7.70
2014,02,08,04,31,-7.70
2014,02,08,04,33,-7.70
2014,02,08,04,34,-7.80
2014,02,08,04,35,-7.80
2014,02,08,04,36,-7.80
2014,02,08,04,37,-7.80
2014,02,08,04,38,-7.80
2014,02,08,04,40,-7.80
2014,02,08,04,41,-7.80
2014,02,08,04,42,-7.90
2014,02,08,04,43,-7.90
2014,02,08,04,44,-7.90
2014,02,08,04,45,-7.90
2014,02,08,04,47,-7.90
2014,02,08,04,48,-7.90
2014,02,08,04,49,-7.90
2014,02,08,04,50,-7.90
2014,02,08,04,51,-7.90
2014,02,08,04,52,-7.90
2014,02,08,04,53,-7.90
2014,02,08,04,54,-7.90
2014,02,08,04,56,-7.90
2014,02,08,04,57,-7.90
2014,02,08,04,58,-7.90
2014,02,08,05,00,-8.00
2014,02,08,05,01,-8.00
2014,02,08,05,02,-8.00
2014,02,08,05,03,-8.00
2014,02,08,05,04,-8.00
2014,02,08,05,05,-8.00
2014,02,08,05,06,-8.00
2014,02,08,05,07,-8.00
2014,02,08,05,08,-8.00
2014,02,08,05,09,-8.10
2014,02,08,05,11,-8.10
2014,02,08,05,13,-8.10
2014,02,08,05,14,-8.10
2014,02,08,05,15,-8.10
2014,02,08,05,16,-8.10
2014,02,08,05,17,-8.10
2014,02,08,05,19,-8.10
2014,02,08,05,20,-8.10
2014,02,08,05,21,-8.10
2014,02,08,05,23,-8.20
2014,02,08,05,25,-8.20
2014,02,08,05,26,-8.20
2014,02,08,05,27,-8.20
2014,02,08,05,28,-8.20
2014,02,08,05,29,-8.20
2014,02,08,05,30,-8.30
2014,02,08,05,32,-8.30
2014,02,08,05,33,-8.30
2014,02,08,05,35,-8.30
2014,02,08,05,36,-8.30
2014,02,08,05,37,-8.30
2014,02,08,05,38,-8.30
2014,02,08,05,39,-8.30
2014,02,08,05,40,-8.30
2014,02,08,05,41,-8.30
2014,02,08,05,43,-8.30
2014,02,08,05,45,-8.30
2014,02,08,05,47,-8.30
2014,02,08,05,48,-8.40
2014,02,08,05,49,-8.40
2014,02,08,05,50,-8.40
2014,02,08,05,51,-8.40
2014,02,08,05,53,-8.40
2014,02,08,05,54,-8.40
2014,02,08,05,55,-8.40
2014,02,08,05,57,-8.40
2014,02,08,05,59,-8.50
2014,02,08,06,00,-8.50
2014,02,08,06,01,-8.50
2014,02,08,06,03,-8.50
2014,02,08,06,04,-8.50
2014,02,08,06,05,-8.50
2014,02,08,06,06,-8.50
2014,02,08,06,07,-8.50
2014,02,08,06,08,-8.50
2014,02,08,06,09,-8.50
2014,02,08,06,10,-8.50
2014,02,08,06,11,-8.50
2014,02,08,06,12,-8.50
2014,02,08,06,14,-8.50
2014,02,08,06,15,-8.60
2014,02,08,06,16,-8.60
2014,02,08,06,17,-8.60
2014,02,08,06,18,-8.60
2014,02,08,06,20,-8.60
2014,02,08,06,21,-8.60
2014,02,08,06,22,-8.60
2014,02,08,06,23,-8.60
2014,02,08,06,25,-8.70
2014,02,08,06,26,-8.70
2014,02,08,06,27,-8.70
2014,02,08,06,28,-8.70
2014,02,08,06,29,-8.70
2014,02,08,06,30,-8.70
2014,02,08,06,31,-8.70
2014,02,08,06,32,-8.60
2014,02,08,06,34,-8.60
2014,02,08,06,35,-8.60
2014,02,08,06,36,-8.60
2014,02,08,06,37,-8.60
2014,02,08,06,39,-8.60
2014,02,08,06,40,-8.60
2014,02,08,06,41,-8.60
2014,02,08,06,43,-8.60
2014,02,08,06,44,-8.60
2014,02,08,06,45,-8.60
2014,02,08,06,46,-8.60
2014,02,08,06,48,-8.60
2014,02,08,06,49,-8.60
2014,02,08,06,50,-8.60
2014,02,08,06,52,-8.60
2014,02,08,06,54,-8.60
2014,02,08,06,55,-8.60
2014,02,08,06,56,-8.70
2014,02,08,06,58,-8.70
2014,02,08,06,59,-8.70
2014,02,08,07,01,-8.70
2014,02,08,07,03,-8.70
2014,02,08,07,05,-8.70
2014,02,08,07,06,-8.70
2014,02,08,07,07,-8.70
2014,02,08,07,08,-8.70
2014,02,08,07,09,-8.70
2014,02,08,07,11,-8.70
2014,02,08,07,12,-8.70
2014,02,08,07,13,-8.70
2014,02,08,07,15,-8.70
2014,02,08,07,16,-8.70
2014,02,08,07,17,-8.70
2014,02,08,07,19,-8.70
2014,02,08,07,20,-8.70
2014,02,08,07,21,-8.70
2014,02,08,07,22,-8.80
2014,02,08,07,24,-8.80
2014,02,08,07,25,-8.80
2014,02,08,07,27,-8.80
2014,02,08,07,28,-8.80
2014,02,08,07,29,-8.80
2014,02,08,07,30,-8.90
2014,02,08,07,31,-8.90
2014,02,08,07,32,-8.90
2014,02,08,07,33,-8.90
2014,02,08,07,34,-8.80
2014,02,08,07,35,-8.80
2014,02,08,07,37,-8.80
2014,02,08,07,38,-8.90
2014,02,08,07,39,-8.90
2014,02,08,07,40,-8.90
2014,02,08,07,42,-8.90
2014,02,08,07,43,-8.90
2014,02,08,07,45,-8.90
2014,02,08,07,46,-8.90
2014,02,08,07,47,-8.90
2014,02,08,07,48,-8.90
2014,02,08,07,49,-9.00
2014,02,08,07,50,-8.90
2014,02,08,07,51,-8.90
2014,02,08,07,52,-9.00
2014,02,08,07,53,-9.00
2014,02,08,07,55,-9.00
2014,02,08,07,57,-9.00
2014,02,08,07,58,-9.00
2014,02,08,07,59,-8.90
2014,02,08,08,01,-8.90
2014,02,08,08,03,-8.90
2014,02,08,08,04,-8.90
2014,02,08,08,05,-8.90
2014,02,08,08,06,-8.90
2014,02,08,08,07,-8.90
2014,02,08,08,08,-8.90
2014,02,08,08,09,-8.90
2014,02,08,08,10,-8.90
2014,02,08,08,11,-9.00
2014,02,08,08,13,-8.90
2014,02,08,08,14,-9.00
2014,02,08,08,15,-8.90
2014,02,08,08,16,-9.00
2014,02,08,08,17,-9.00
2014,02,08,08,18,-9.00
2014,02,08,08,20,-9.00
2014,02,08,08,22,-9.00
2014,02,08,08,24,-8.90
2014,02,08,08,25,-8.90
2014,02,08,08,26,-8.90
2014,02,08,08,28,-8.90
2014,02,08,08,29,-8.90
2014,02,08,08,31,-8.80
2014,02,08,08,32,-8.80
2014,02,08,08,33,-8.80
2014,02,08,08,34,-8.80
2014,02,08,08,35,-8.70
2014,02,08,08,36,-8.70
2014,02,08,08,38,-8.60
2014,02,08,08,39,-8.60
2014,02,08,08,41,-8.40
2014,02,08,08,42,-8.40
2014,02,08,08,43,-8.30
2014,02,08,08,45,-8.20
2014,02,08,08,46,-8.20
2014,02,08,08,47,-8.20
2014,02,08,08,49,-7.90
2014,02,08,08,50,-7.90
2014,02,08,08,51,-7.80
2014,02,08,08,53,-7.70
2014,02,08,08,54,-7.60
2014,02,08,08,55,-7.60
2014,02,08,08,56,-7.50
2014,02,08,08,57,-7.40
2014,02,08,08,59,-7.30
2014,02,08,09,00,-7.30
2014,02,08,09,01,-7.30
2014,02,08,09,02,-7.20
2014,02,08,09,04,-7.20
2014,02,08,09,05,-7.20
2014,02,08,09,06,-7.10
2014,02,08,09,07,-7.10
2014,02,08,09,08,-7.00
2014,02,08,09,09,-6.90
2014,02,08,09,11,-6.80
2014,02,08,09,12,-6.80
2014,02,08,09,13,-6.70
2014,02,08,09,14,-6.70
2014,02,08,09,15,-6.60
2014,02,08,09,16,-6.60
2014,02,08,09,17,-6.50
2014,02,08,09,18,-6.40
2014,02,08,09,19,-6.40
2014,02,08,09,21,-6.30
2014,02,08,09,22,-6.20
2014,02,08,09,24,-6.10
2014,02,08,09,26,-6.00
2014,02,08,09,28,-5.90
2014,02,08,09,29,-5.80
2014,02,08,09,30,-5.80
2014,02,08,09,31,-5.80
2014,02,08,09,32,-5.70
2014,02,08,09,33,-5.70
2014,02,08,09,35,-5.60
2014,02,08,09,36,-5.50
2014,02,08,09,37,-5.50
2014,02,08,09,39,-5.30
2014,02,08,09,40,-5.30
2014,02,08,09,42,-5.20
2014,02,08,09,43,-5.10
2014,02,08,09,45,-5.00
2014,02,08,09,47,-4.90
2014,02,08,09,49,-4.80
2014,02,08,09,50,-4.70
2014,02,08,09,51,-4.70
2014,02,08,09,52,-4.70
2014,02,08,09,53,-4.70
2014,02,08,09,54,-4.60
2014,02,08,09,55,-4.60
2014,02,08,09,56,-4.60
2014,02,08,09,57,-4.50
2014,02,08,09,58,-4.40
2014,02,08,10,00,-4.30
2014,02,08,10,01,-4.30
2014,02,08,10,02,-4.20
2014,02,08,10,04,-4.20
2014,02,08,10,05,-4.10
2014,02,08,10,06,-4.00
2014,02,08,10,07,-3.90
2014,02,08,10,08,-3.90
2014,02,08,10,09,-3.80
2014,02,08,10,11,-3.70
2014,02,08,10,12,-3.70
2014,02,08,10,13,-3.70
2014,02,08,10,14,-3.60
2014,02,08,10,15,-3.50
2014,02,08,10,16,-3.40
2014,02,08,10,18,-3.30
2014,02,08,10,19,-3.30
2014,02,08,10,21,-3.20
2014,02,08,10,22,-3.10
2014,02,08,10,24,-2.90
2014,02,08,10,25,-2.90
2014,02,08,10,27,-2.70
2014,02,08,10,28,-2.70
2014,02,08,10,29,-2.60
2014,02,08,10,30,-2.60
2014,02,08,10,32,-2.50
2014,02,08,10,33,-2.40
2014,02,08,10,34,-2.40
2014,02,08,10,36,-2.20
2014,02,08,10,37,-2.20
2014,02,08,10,38,-2.20
2014,02,08,10,39,-2.10
2014,02,08,10,40,-2.10
2014,02,08,10,41,-2.10
2014,02,08,10,42,-2.00
2014,02,08,10,44,-1.90
2014,02,08,10,45,-1.90
2014,02,08,10,46,-1.80
2014,02,08,10,47,-1.80
2014,02,08,10,49,-1.70
2014,02,08,10,50,-1.60
2014,02,08,10,51,-1.50
2014,02,08,10,53,-1.30
2014,02,08,10,54,-1.20
2014,02,08,10,55,-1.20
2014,02,08,10,57,-1.00
2014,02,08,10,58,-0.90
2014,02,08,10,59,-0.80
2014,02,08,11,00,-0.80
2014,02,08,11,01,-0.80
2014,02,08,11,03,-0.90
2014,02,08,11,04,-1.10
2014,02,08,11,05,-1.20
2014,02,08,11,06,-1.20
2014,02,08,11,07,-1.30
2014,02,08,11,08,-1.30
2014,02,08,11,09,-1.30
2014,02,08,11,11,-1.30
2014,02,08,11,12,-1.30
2014,02,08,11,14,-1.40
2014,02,08,11,16,-1.40
2014,02,08,11,17,-1.40
2014,02,08,11,19,-1.30
2014,02,08,11,20,-1.20
2014,02,08,11,22,-0.90
2014,02,08,11,24,-0.60
2014,02,08,11,26,-0.30
2014,02,08,11,27,-0.20
2014,02,08,11,28,-0.10
2014,02,08,11,29,0.00
2014,02,08,11,31,0.20
2014,02,08,11,33,0.60
2014,02,08,11,34,0.80
2014,02,08,11,35,0.90
2014,02,08,11,37,1.20
2014,02,08,11,38,1.30
2014,02,08,11,39,1.40
2014,02,08,11,41,1.60
2014,02,08,11,42,1.70
2014,02,08,11,43,1.70
2014,02,08,11,44,1.80
2014,02,08,11,45,1.80
2014,02,08,11,46,1.90
2014,02,08,11,48,1.90
2014,02,08,11,50,2.10
2014,02,08,11,51,2.10
2014,02,08,11,52,2.10
2014,02,08,11,53,2.10
2014,02,08,11,54,2.20
2014,02,08,11,56,2.20
2014,02,08,11,57,2.20
2014,02,08,11,59,2.20
2014,02,08,12,00,2.20
2014,02,08,12,01,2.20
2014,02,08,12,02,2.10
2014,02,08,12,04,2.10
2014,02,08,12,05,2.10
2014,02,08,12,06,2.00
2014,02,08,12,07,2.00
2014,02,08,12,08,1.90
2014,02,08,12,09,1.90
2014,02,08,12,10,1.90
2014,02,08,12,11,1.80
2014,02,08,12,12,1.80
2014,02,08,12,13,1.80
2014,02,08,12,15,1.70
2014,02,08,12,17,1.70
2014,02,08,12,19,1.60
2014,02,08,12,20,1.60
2014,02,08,12,21,1.60
2014,02,08,12,23,1.60
2014,02,08,12,24,1.60
2014,02,08,12,25,1.60
2014,02,08,12,27,1.60
2014,02,08,12,28,1.60
2014,02,08,12,30,1.70
2014,02,08,12,32,1.70
2014,02,08,12,33,1.70
2014,02,08,12,34,1.70
2014,02,08,12,36,1.70
2014,02,08,12,37,1.70
2014,02,08,12,38,1.80
2014,02,08,12,40,1.80
2014,02,08,12,41,1.80
2014,02,08,12,42,1.80
2014,02,08,12,43,1.80
2014,02,08,12,44,1.90
2014,02,08,12,45,1.90
2014,02,08,12,47,1.90
2014,02,08,12,48,1.90
2014,02,08,12,49,1.90
2014,02,08,12,50,1.90
2014,02,08,12,51,1.90
2014,02,08,12,52,1.90
2014,02,08,12,53,1.90
2014,02,08,12,54,1.90
2014,02,08,12,55,1.90
2014,02,08,12,57,1.90
2014,02,08,12,59,1.90
2014,02,08,13,01,1.90
2014,02,08,13,03,1.90
2014,02,08,13,04,1.90
2014,02,08,13,05,1.90
2014,02,08,13,06,1.90
2014,02,08,13,07,1.90
2014,02,08,13,08,1.90
2014,02,08,13,09,1.90
2014,02,08,13,10,2.00
2014,02,08,13,12,2.00
2014,02,08,13,13,2.10
2014,02,08,13,14,2.10
2014,02,08,13,15,2.10
2014,02,08,13,16,2.20
2014,02,08,13,18,2.20
2014,02,08,13,19,2.20
2014,02,08,13,21,2.30
2014,02,08,13,22,2.40
2014,02,08,13,24,2.50
2014,02,08,13,25,2.60
2014,02,08,13,26,2.60
2014,02,08,13,27,2.60
2014,02,08,13,28,2.60
2014,02,08,13,29,2.60
2014,02,08,13,30,2.60
2014,02,08,13,31,2.60
2014,02,08,13,33,2.60
2014,02,08,13,34,2.70
2014,02,08,13,36,2.70
2014,02,08,13,37,2.70
2014,02,08,13,39,2.70
2014,02,08,13,40,2.70
2014,02,08,13,41,2.80
2014,02,08,13,42,2.80
2014,02,08,13,44,2.90
2014,02,08,13,46,2.90
2014,02,08,13,47,2.90
2014,02,08,13,48,2.90
2014,02,08,13,50,2.90
2014,02,08,13,51,3.00
2014,02,08,13,53,3.10
2014,02,08,13,55,3.00
2014,02,08,13,56,2.90
2014,02,08,13,58,2.90
2014,02,08,13,59,3.00
2014,02,08,14,00,3.00
2014,02,08,14,01,3.00
2014,02,08,14,03,3.10
2014,02,08,14,04,3.10
2014,02,08,14,05,3.10
2014,02,08,14,06,3.10
2014,02,08,14,07,3.10
2014,02,08,14,08,3.10
2014,02,08,14,09,3.10
2014,02,08,14,10,3.10
2014,02,08,14,12,3.10
2014,02,08,14,14,3.10
2014,02,08,14,15,3.10
2014,02,08,14,17,3.10
2014,02,08,14,18,3.10
2014,02,08,14,19,3.10
2014,02,08,14,20,3.20
2014,02,08,14,21,3.20
2014,02,08,14,22,3.20
2014,02,08,14,24,3.20
2014,02,08,14,26,3.20
2014,02,08,14,27,3.20
2014,02,08,14,28,3.20
2014,02,08,14,30,3.10
2014,02,08,14,31,3.10
2014,02,08,14,32,3.10
2014,02,08,14,33,3.10
2014,02,08,14,34,3.10
2014,02,08,14,36,3.10
2014,02,08,14,38,3.10
2014,02,08,14,39,3.00
2014,02,08,14,40,3.00
2014,02,08,14,41,3.00
2014,02,08,14,43,3.00
2014,02,08,14,44,3.00
2014,02,08,14,45,3.00
2014,02,08,14,47,2.90
2014,02,08,14,49,2.90
2014,02,08,14,50,2.90
2014,02,08,14,51,2.90
2014,02,08,14,52,2.90
2014,02,08,14,53,3.00
2014,02,08,14,54,3.00
2014,02,08,14,55,3.10
2014,02,08,14,56,3.10
2014,02,08,14,57,3.10
2014,02,08,14,58,3.20
2014,02,08,14,59,3.20
2014,02,08,15,01,3.20
2014,02,08,15,02,3.20
2014,02,08,15,04,3.20
2014,02,08,15,05,3.20
2014,02,08,15,06,3.20
2014,02,08,15,07,3.10
2014,02,08,15,08,3.10
2014,02,08,15,09,3.10
2014,02,08,15,10,3.10
2014,02,08,15,11,3.10
2014,02,08,15,12,3.10
2014,02,08,15,13,3.10
2014,02,08,15,15,3.00
2014,02,08,15,16,3.00
2014,02,08,15,18,3.00
2014,02,08,15,19,3.00
2014,02,08,15,20,2.90
2014,02,08,15,21,3.00
2014,02,08,15,22,3.00
2014,02,08,15,23,2.90
2014,02,08,15,25,2.90
2014,02,08,15,27,2.90
2014,02,08,15,28,2.90
2014,02,08,15,30,2.90
2014,02,08,15,31,2.90
2014,02,08,15,32,2.90
2014,02,08,15,33,2.90
2014,02,08,15,35,2.90
2014,02,08,15,37,2.80
2014,02,08,15,38,2.80
2014,02,08,15,39,2.80
2014,02,08,15,41,2.70
2014,02,08,15,43,2.70
2014,02,08,15,44,2.70
2014,02,08,15,45,2.70
2014,02,08,15,46,2.70
2014,02,08,15,47,2.70
2014,02,08,15,49,2.60
2014,02,08,15,50,2.60
2014,02,08,15,52,2.50
2014,02,08,15,53,2.50
2014,02,08,15,55,2.50
2014,02,08,15,56,2.40
2014,02,08,15,57,2.40
2014,02,08,15,58,2.40
2014,02,08,15,59,2.40
2014,02,08,16,00,2.40
2014,02,08,16,01,2.40
2014,02,08,16,02,2.40
2014,02,08,16,04,2.30
2014,02,08,16,05,2.30
2014,02,08,16,06,2.30
2014,02,08,16,07,2.30
2014,02,08,16,08,2.30
2014,02,08,16,09,2.30
2014,02,08,16,11,2.20
2014,02,08,16,12,2.20
2014,02,08,16,13,2.20
2014,02,08,16,14,2.20
2014,02,08,16,15,2.20
2014,02,08,16,17,2.20
2014,02,08,16,18,2.20
2014,02,08,16,19,2.20
2014,02,08,16,20,2.20
2014,02,08,16,21,2.20
2014,02,08,16,23,2.20
2014,02,08,16,24,2.20
2014,02,08,16,25,2.20
2014,02,08,16,26,2.20
2014,02,08,16,28,2.20
2014,02,08,16,29,2.20
2014,02,08,16,30,2.20
2014,02,08,16,31,2.20
2014,02,08,16,32,2.20
2014,02,08,16,33,2.20
2014,02,08,16,35,2.20
2014,02,08,16,36,2.20
2014,02,08,16,38,2.20
2014,02,08,16,39,2.20
2014,02,08,16,41,2.20
2014,02,08,16,42,2.20
2014,02,08,16,44,2.10
2014,02,08,16,45,2.10
2014,02,08,16,46,2.10
2014,02,08,16,47,2.10
2014,02,08,16,48,2.10
2014,02,08,16,49,2.00
2014,02,08,16,51,1.90
2014,02,08,16,53,1.90
2014,02,08,16,54,1.90
2014,02,08,16,55,1.80
2014,02,08,16,56,1.80
2014,02,08,16,58,1.80
2014,02,08,16,59,1.70
2014,02,08,17,00,1.70
2014,02,08,17,02,1.70
2014,02,08,17,04,1.70
2014,02,08,17,05,1.60
2014,02,08,17,06,1.60
2014,02,08,17,07,1.60
2014,02,08,17,08,1.60
2014,02,08,17,09,1.60
2014,02,08,17,10,1.60
2014,02,08,17,13,1.50
2014,02,08,17,15,1.50
2014,02,08,17,16,1.50
2014,02,08,17,18,1.40
2014,02,08,17,20,1.40
2014,02,08,17,21,1.40
2014,02,08,17,22,1.40
2014,02,08,17,23,1.30
2014,02,08,17,24,1.30
2014,02,08,17,26,1.30
2014,02,08,17,27,1.20
2014,02,08,17,28,1.20
2014,02,08,17,29,1.20
2014,02,08,17,31,1.20
2014,02,08,17,32,1.20
2014,02,08,17,33,1.20
2014,02,08,17,34,1.10
2014,02,08,17,35,1.10
2014,02,08,17,37,1.10
2014,02,08,17,38,1.10
2014,02,08,17,40,1.10
2014,02,08,17,41,1.00
2014,02,08,17,42,1.00
2014,02,08,17,43,1.00
2014,02,08,17,45,0.90
2014,02,08,17,46,0.90
2014,02,08,17,47,0.90
2014,02,08,17,48,0.80
2014,02,08,17,49,0.80
2014,02,08,17,50,0.80
2014,02,08,17,51,0.80
2014,02,08,17,52,0.80
2014,02,08,17,53,0.80
2014,02,08,17,54,0.80
2014,02,08,17,55,0.80
2014,02,08,17,56,0.80
2014,02,08,17,57,0.80
2014,02,08,17,58,0.70
2014,02,08,17,59,0.70
2014,02,08,18,00,0.70
2014,02,08,18,02,0.60
2014,02,08,18,03,0.50
2014,02,08,18,04,0.40
2014,02,08,18,05,0.40
2014,02,08,18,06,0.40
2014,02,08,18,07,0.30
2014,02,08,18,08,0.30
2014,02,08,18,09,0.30
2014,02,08,18,10,0.20
2014,02,08,18,11,0.20
2014,02,08,18,12,0.20
2014,02,08,18,13,0.20
2014,02,08,18,15,0.20
2014,02,08,18,17,0.20
2014,02,08,18,18,0.20
2014,02,08,18,19,0.20
2014,02,08,18,21,0.20
2014,02,08,18,23,0.20
2014,02,08,18,25,0.20
2014,02,08,18,26,0.20
2014,02,08,18,28,0.20
2014,02,08,18,29,0.20
2014,02,08,18,31,0.10
2014,02,08,18,32,0.10
2014,02,08,18,33,0.10
2014,02,08,18,35,0.10
2014,02,08,18,37,0.00
2014,02,08,18,38,-0.10
2014,02,08,18,39,-0.10
2014,02,08,18,40,-0.10
2014,02,08,18,42,-0.10
2014,02,08,18,43,-0.20
2014,02,08,18,44,-0.20
2014,02,08,18,45,-0.20
2014,02,08,18,47,-0.20
2014,02,08,18,48,-0.20
2014,02,08,18,49,-0.30
2014,02,08,18,50,-0.30
2014,02,08,18,51,-0.30
2014,02,08,18,52,-0.30
2014,02,08,18,53,-0.30
2014,02,08,18,54,-0.40
2014,02,08,18,55,-0.40
2014,02,08,18,56,-0.40
2014,02,08,18,57,-0.40
2014,02,08,18,58,-0.40
2014,02,08,19,00,-0.40
2014,02,08,19,02,-0.50
2014,02,08,19,03,-0.50
2014,02,08,19,04,-0.50
2014,02,08,19,05,-0.50
2014,02,08,19,06,-0.50
2014,02,08,19,07,-0.60
2014,02,08,19,08,-0.50
2014,02,08,19,09,-0.50
2014,02,08,19,10,-0.50
2014,02,08,19,12,-0.50
2014,02,08,19,13,-0.50
2014,02,08,19,14,-0.40
2014,02,08,19,16,-0.50
2014,02,08,19,17,-0.50
2014,02,08,19,18,-0.50
2014,02,08,19,19,-0.60
2014,02,08,19,20,-0.60
2014,02,08,19,22,-0.60
2014,02,08,19,23,-0.70
2014,02,08,19,24,-0.70
2014,02,08,19,25,-0.70
2014,02,08,19,26,-0.80
2014,02,08,19,27,-0.80
2014,02,08,19,29,-0.90
2014,02,08,19,31,-1.10
2014,02,08,19,32,-1.10
2014,02,08,19,34,-1.20
2014,02,08,19,35,-1.20
2014,02,08,19,36,-1.20
2014,02,08,19,37,-1.30
2014,02,08,19,39,-1.30
2014,02,08,19,40,-1.30
2014,02,08,19,42,-1.40
2014,02,08,19,43,-1.40
2014,02,08,19,45,-1.40
2014,02,08,19,46,-1.50
2014,02,08,19,47,-1.50
2014,02,08,19,48,-1.50
2014,02,08,19,50,-1.50
2014,02,08,19,51,-1.50
2014,02,08,19,52,-1.60
2014,02,08,19,53,-1.60
2014,02,08,19,54,-1.60
2014,02,08,19,55,-1.60
2014,02,08,19,56,-1.60
2014,02,08,19,58,-1.60
2014,02,08,19,59,-1.70
2014,02,08,20,00,-1.70
2014,02,08,20,02,-1.70
2014,02,08,20,04,-1.70
2014,02,08,20,05,-1.70
2014,02,08,20,06,-1.70
2014,02,08,20,07,-1.80
2014,02,08,20,08,-1.70
2014,02,08,20,09,-1.70
2014,02,08,20,10,-1.80
2014,02,08,20,11,-1.80
2014,02,08,20,12,-1.80
2014,02,08,20,13,-1.80
2014,02,08,20,14,-1.80
2014,02,08,20,16,-1.80
2014,02,08,20,17,-1.90
2014,02,08,20,18,-1.90
2014,02,08,20,20,-1.90
2014,02,08,20,22,-2.00
2014,02,08,20,23,-2.00
2014,02,08,20,24,-2.00
2014,02,08,20,25,-2.00
2014,02,08,20,26,-2.10
2014,02,08,20,28,-2.10
2014,02,08,20,29,-2.10
2014,02,08,20,30,-2.10
2014,02,08,20,31,-2.10
2014,02,08,20,32,-2.10
2014,02,08,20,33,-2.20
2014,02,08,20,34,-2.20
2014,02,08,20,35,-2.20
2014,02,08,20,37,-2.20
2014,02,08,20,39,-2.20
2014,02,08,20,41,-2.20
2014,02,08,20,42,-2.20
2014,02,08,20,43,-2.30
2014,02,08,20,44,-2.30
2014,02,08,20,46,-2.30
2014,02,08,20,47,-2.30
2014,02,08,20,49,-2.30
2014,02,08,20,50,-2.30
2014,02,08,20,51,-2.40
2014,02,08,20,52,-2.50
2014,02,08,20,53,-2.50
2014,02,08,20,54,-2.50
2014,02,08,20,55,-2.60
2014,02,08,20,57,-2.60
2014,02,08,20,59,-2.60
2014,02,08,21,00,-2.60
2014,02,08,21,01,-2.60
2014,02,08,21,03,-2.60
2014,02,08,21,04,-2.70
2014,02,08,21,05,-2.70
2014,02,08,21,06,-2.70
2014,02,08,21,07,-2.70
2014,02,08,21,08,-2.70
2014,02,08,21,09,-2.80
2014,02,08,21,10,-2.80
2014,02,08,21,11,-2.80
2014,02,08,21,12,-2.80
2014,02,08,21,13,-2.80
2014,02,08,21,14,-2.80
2014,02,08,21,15,-2.80
2014,02,08,21,17,-2.90
2014,02,08,21,19,-3.00
2014,02,08,21,20,-3.10
2014,02,08,21,22,-3.10
2014,02,08,21,23,-3.20
2014,02,08,21,24,-3.20
2014,02,08,21,25,-3.20
2014,02,08,21,26,-3.20
2014,02,08,21,27,-3.30
2014,02,08,21,28,-3.30
2014,02,08,21,29,-3.30
2014,02,08,21,30,-3.30
2014,02,08,21,32,-3.30
2014,02,08,21,33,-3.30
2014,02,08,21,34,-3.30
2014,02,08,21,35,-3.30
2014,02,08,21,37,-3.30
2014,02,08,21,38,-3.30
2014,02,08,21,39,-3.30
2014,02,08,21,40,-3.30
2014,02,08,21,41,-3.30
2014,02,08,21,42,-3.30
2014,02,08,21,44,-3.30
2014,02,08,21,45,-3.30
2014,02,08,21,46,-3.30
2014,02,08,21,48,-3.30
2014,02,08,21,49,-3.40
2014,02,08,21,51,-3.40
2014,02,08,21,52,-3.40
2014,02,08,21,54,-3.40
2014,02,08,21,55,-3.40
2014,02,08,21,56,-3.50
2014,02,08,21,57,-3.50
2014,02,08,21,58,-3.50
2014,02,08,22,00,-3.60
2014,02,08,22,01,-3.60
2014,02,08,22,02,-3.60
2014,02,08,22,04,-3.60